| time (UTC) | temp C | wind direction | speed KPH | gust KPH | rain 1hr cm | rain 24hr cm | rain mn cm | humidity % | barometer mb |
| 20260506073002 | 18 | 346 | 0.0 | 0.0 | 0.00 | 0.00 | 0.00 | 74 | 1007.8 |
| 20260506071500 | 18 | 338 | 0.0 | 0.0 | 0.00 | 0.00 | 0.00 | 74 | 1007.8 |
| 20260506070110 | 18 | 304 | 0.0 | 0.0 | 0.00 | 0.00 | 0.00 | 74 | 1007.9 |
| 20260506061558 | 19 | 304 | 0.0 | 0.0 | 0.00 | 0.00 | 0.00 | 73 | 1007.8 |
| 20260506044546 | 21 | 346 | 0.0 | 1.6 | 0.00 | 0.00 | 0.00 | 71 | 1007.6 |
| 20260506043040 | 21 | 344 | 0.0 | 8.0 | 0.00 | 0.00 | 0.00 | 71 | 1007.5 |
| 20260506041536 | 22 | 340 | 1.6 | 12.9 | 0.00 | 0.00 | 0.00 | 71 | 1007.4 |
| 20260506040052 | 23 | 348 | 0.0 | 16.1 | 0.00 | 0.00 | 0.00 | 71 | 1007.1 |
| 20260506034535 | 25 | 321 | 0.0 | 0.0 | 0.00 | 0.00 | 0.00 | 72 | 1006.7 |
| 20260506033033 | 25 | 355 | 0.0 | 1.6 | 0.00 | 0.00 | 0.00 | 72 | 1006.5 |
| 20260506031547 | 25 | 176 | 0.0 | 1.6 | 0.00 | 0.00 | 0.00 | 76 | 1005.7 |
| 20260506030032 | 25 | 360 | 0.0 | 3.2 | 0.00 | 0.00 | 0.00 | 72 | 1005.6 |
| 20260506024532 | 25 | 144 | 0.0 | 1.6 | 0.00 | 0.00 | 0.00 | 74 | 1004.7 |
| 20260506023032 | 25 | 141 | 0.0 | 0.0 | 0.00 | 0.00 | 0.00 | 74 | 1004.6 |
| 20260506021533 | 26 | 141 | 0.0 | 0.0 | 0.00 | 0.00 | 0.00 | 73 | 1004.3 |
| 20260506020030 | 26 | 141 | 0.0 | 0.0 | 0.00 | 0.00 | 0.00 | 71 | 1004.2 |
| 20260506014630 | 26 | 136 | 0.0 | 0.0 | 0.00 | 0.00 | 0.00 | 70 | 1003.9 |
| 20260506013029 | 27 | 152 | 0.0 | 0.0 | 0.00 | 0.00 | 0.00 | 69 | 1003.6 |
| 20260506011529 | 27 | 152 | 0.0 | 0.0 | 0.00 | 0.00 | 0.00 | 67 | 1003.5 |
| 20260506010029 | 28 | 155 | 0.0 | 0.0 | 0.00 | 0.00 | 0.00 | 67 | 1003.4 |
| 20260506004528 | 28 | 155 | 0.0 | 0.0 | 0.00 | 0.00 | 0.00 | 66 | 1003.2 |
| 20260506003027 | 28 | 156 | 0.0 | 1.6 | 0.00 | 0.00 | 0.00 | 65 | 1003.4 |
| 20260506001527 | 29 | 138 | 0.0 | 1.6 | 0.00 | 0.00 | 0.00 | 65 | 1003.4 |
| 20260506000027 | 30 | 139 | 0.0 | 1.6 | 0.00 | 0.00 | 0.00 | 65 | 1003.5 |
| 20260505234527 | 30 | 152 | 0.0 | 8.0 | 0.00 | 0.00 | 0.00 | 64 | 1003.4 |
| 20260505233025 | 30 | 200 | 0.0 | 8.0 | 0.00 | 0.00 | 0.00 | 63 | 1003.3 |
| 20260505231530 | 31 | 148 | 0.0 | 9.7 | 0.00 | 0.00 | 0.00 | 60 | 1003.2 |
| 20260505230030 | 32 | 186 | 0.0 | 4.8 | 0.00 | 0.00 | 0.00 | 58 | 1003.2 |
| 20260505224524 | 32 | 164 | 0.0 | 0.0 | 0.00 | 0.00 | 0.00 | 51 | 1003.2 |
| 20260505223023 | 32 | 306 | 0.0 | 8.0 | 0.00 | 0.00 | 0.00 | 53 | 1003.2 |
| 20260505221522 | 32 | 172 | 0.0 | 1.6 | 0.00 | 0.00 | 0.00 | 50 | 1003.1 |
| 20260505220020 | 32 | 159 | 0.0 | 8.0 | 0.00 | 0.00 | 0.00 | 51 | 1003.2 |
| 20260505214522 | 32 | 175 | 0.0 | 4.8 | 0.00 | 0.00 | 0.00 | 52 | 1003.4 |
| 20260505213019 | 32 | 170 | 0.0 | 1.6 | 0.00 | 0.00 | 0.00 | 52 | 1003.3 |
| 20260505211517 | 32 | 169 | 0.0 | 8.0 | 0.00 | 0.00 | 0.00 | 53 | 1003.4 |
| 20260505210020 | 32 | 156 | 0.0 | 0.0 | 0.00 | 0.00 | 0.00 | 56 | 1003.6 |
| 20260505204511 | 31 | 163 | 0.0 | 1.6 | 0.00 | 0.00 | 0.00 | 56 | 1004.0 |
| 20260505203009 | 31 | 136 | 0.0 | 1.6 | 0.00 | 0.00 | 0.00 | 59 | 1003.9 |
| 20260505201507 | 31 | 177 | 0.0 | 3.2 | 0.00 | 0.00 | 0.00 | 57 | 1004.1 |
| 20260505200004 | 31 | 312 | 0.0 | 1.6 | 0.00 | 0.00 | 0.00 | 66 | 1004.5 |
| 20260505194504 | 31 | 273 | 0.0 | 8.0 | 0.00 | 0.00 | 0.00 | 64 | 1004.6 |
| 20260505193101 | 30 | 327 | 0.0 | 8.0 | 0.00 | 0.00 | 0.00 | 64 | 1004.5 |
| 20260505191557 | 30 | 280 | 0.0 | 4.8 | 0.00 | 0.00 | 0.00 | 66 | 1004.7 |
| 20260505190055 | 30 | 155 | 0.0 | 11.3 | 0.00 | 0.00 | 0.00 | 66 | 1004.9 |
| 20260505184552 | 29 | 151 | 0.0 | 8.0 | 0.00 | 0.00 | 0.00 | 67 | 1005.3 |
| 20260505183048 | 28 | 154 | 0.0 | 12.9 | 0.00 | 0.00 | 0.00 | 68 | 1005.5 |
| 20260505181550 | 28 | 155 | 1.6 | 8.0 | 0.00 | 0.00 | 0.00 | 68 | 1005.6 |
| 20260505180043 | 28 | 188 | 1.6 | 11.3 | 0.00 | 0.00 | 0.00 | 70 | 1005.6 |
| 20260505174544 | 27 | 221 | 1.6 | 9.7 | 0.00 | 0.00 | 0.00 | 71 | 1005.9 |
| 20260505173037 | 27 | 159 | 3.2 | 22.5 | 0.00 | 0.00 | 0.00 | 71 | 1006.0 |
| 20260505171536 | 26 | 199 | 0.0 | 16.1 | 0.00 | 0.00 | 0.00 | 73 | 1006.0 |
| 20260505170032 | 26 | 195 | 0.0 | 9.7 | 0.00 | 0.00 | 0.00 | 73 | 1006.0 |
| 20260505164532 | 26 | 163 | 0.0 | 12.9 | 0.00 | 0.00 | 0.00 | 74 | 1006.1 |
| 20260505163031 | 26 | 209 | 0.0 | 6.4 | 0.00 | 0.00 | 0.00 | 74 | 1006.1 |
| 20260505161529 | 26 | 184 | 0.0 | 8.0 | 0.00 | 0.00 | 0.00 | 76 | 1006.0 |
| 20260505153018 | 24 | 168 | 0.0 | 11.3 | 0.00 | 0.00 | 0.00 | 79 | 1006.3 |
| 20260505151516 | 23 | 210 | 0.0 | 16.1 | 0.00 | 0.00 | 0.00 | 80 | 1006.4 |
| 20260505130111 | 20 | 164 | 0.0 | 1.6 | 0.00 | 0.00 | 0.00 | 86 | 1005.6 |
| 20260505124601 | -17 | 0.0 | 0.0 | 0.00 | 0.00 | 0.00 | 1005.5 | ||
| 20260505123051 | -17 | 0.0 | 0.0 | 0.00 | 0.00 | 0.00 | 1005.4 | ||
| 20260505121550 | -17 | 0.0 | 0.0 | 0.00 | 0.00 | 0.00 | 1005.1 | ||
| 20260505120046 | 20 | 217 | 0.0 | 0.0 | 0.00 | 0.00 | 0.00 | 85 | 1004.9 |
| 20260505114542 | 20 | 172 | 0.0 | 0.0 | 0.00 | 0.00 | 0.00 | 84 | 1004.9 |
| 20260505113049 | 20 | 223 | 0.0 | 0.0 | 0.00 | 0.00 | 0.00 | 85 | 1004.6 |
| 20260505111541 | 20 | 198 | 0.0 | 0.0 | 0.00 | 0.00 | 0.00 | 84 | 1004.6 |
| 20260505101535 | 20 | 168 | 0.0 | 0.0 | 0.00 | 0.00 | 0.00 | 85 | 1004.9 |
| 20260505100035 | 20 | 200 | 0.0 | 1.6 | 0.00 | 0.00 | 0.00 | 85 | 1004.8 |
| 20260505094536 | 20 | 155 | 0.0 | 0.0 | 0.00 | 0.00 | 0.00 | 84 | 1005.0 |
| 20260505093032 | 20 | 178 | 0.0 | 1.6 | 0.00 | 0.00 | 0.00 | 84 | 1005.2 |
| 20260505091531 | 20 | 165 | 0.0 | 1.6 | 0.00 | 0.00 | 0.00 | 84 | 1005.3 |
| 20260505090036 | 20 | 173 | 0.0 | 1.6 | 0.00 | 0.00 | 0.00 | 83 | 1005.2 |
| 20260505084528 | 20 | 201 | 0.0 | 1.6 | 0.00 | 0.00 | 0.00 | 83 | 1005.2 |
| 20260505083027 | 20 | 158 | 0.0 | 12.9 | 0.00 | 0.00 | 0.00 | 83 | 1005.1 |
| 20260505081539 | 20 | 161 | 0.0 | 8.0 | 0.00 | 0.00 | 0.00 | 83 | 1005.6 |